Theta_e
307 306 306 306 306 306 307 307 307 307 307 307 308 308 308 308 303 304 305 306 307 310 305 305 304 306 306 305 308 313 313 308 311 316 319 322 324 323 324 327 332 336 335 335 333
305 304 306 306 306 306 306 307 307 307 307 307 308 308 308 306 303 303 305 305 309 308 306 305 306 305 306 305 307 308 306 305 307 309 316 320 323 323 326 328 332 334 333 334 334
303 303 304 305 305 305 306 306 306 306 307 307 307 306 307 303 301 304 303 305 309 309 307 305 305 306 307 306 304 307 308 303 303 306 311 317 320 322 325 328 329 333 335 332 333
301 301 301 300 302 302 304 303 304 306 307 307 306 306 304 303 306 303 303 305 306 306 306 305 305 306 307 307 305 304 302 304 305 305 305 310 318 322 324 326 324 325 331 331 333
302 300 300 299 299 298 301 300 302 305 307 307 306 306 304 305 305 303 303 304 305 304 305 305 306 306 307 305 304 303 304 303 303 304 304 307 313 320 322 324 329 328 328 332 332
302 301 299 298 297 297 298 297 300 304 305 302 303 306 305 306 303 302 304 306 306 306 307 306 306 305 306 306 306 303 305 304 304 305 306 307 310 317 322 321 331 331 330 330 332
302 300 299 298 296 296 297 297 298 301 297 300 305 305 306 305 302 302 306 306 307 307 307 307 306 305 306 306 305 305 306 303 303 304 306 311 312 317 320 319 327 324 324 328 331
301 299 298 297 296 296 296 296 296 297 300 301 306 305 306 303 302 303 305 307 308 307 307 307 306 304 305 305 306 306 307 308 302 303 306 312 314 316 320 321 324 324 322 321 321
300 299 298 297 296 296 296 296 295 299 303 303 306 304 305 302 302 302 305 307 308 307 306 307 306 306 306 307 307 310 310 309 309 306 311 311 313 323 322 322 323 324 323 323 321
301 300 298 297 296 296 296 295 296 300 304 304 300 305 304 302 300 303 306 307 308 307 307 307 308 308 308 309 310 310 310 312 313 311 309 314 312 324 323 323 323 323 323 322 322
302 300 297 296 296 296 296 294 297 297 299 300 299 300 301 300 303 306 305 307 308 308 310 308 311 312 312 309 308 309 310 312 311 314 312 312 324 324 324 323 322 322 323 321 321
301 298 297 296 297 297 295 298 298 298 298 298 298 298 298 299 305 306 305 310 309 311 310 311 313 309 308 308 309 311 315 314 317 316 315 317 322 322 321 322 322 320 320 321 318
300 297 297 297 298 297 297 298 298 298 300 298 295 297 299 299 305 306 305 307 309 310 311 313 311 307 310 311 315 316 319 321 320 320 318 318 317 322 318 317 314 312 316 319 319
299 298 297 297 299 297 297 298 298 298 306 296 298 300 300 301 306 302 304 307 308 308 309 311 308 309 311 311 309 318 313 317 319 319 319 313 319 312 310 308 307 305 307 308 312
299 298 297 298 298 297 296 299 299 296 312 295 298 297 300 304 302 304 301 306 307 307 308 309 308 310 313 310 308 316 315 317 317 318 314 311 313 306 306 306 305 305 305 306 308
299 298 297 297 295 296 298 299 295 316 307 297 297 300 303 302 302 301 304 304 304 304 306 306 304 307 309 308 307 308 314 313 312 316 317 308 311 306 305 304 304 305 305 307 308
298 298 298 296 296 297 299 297 313 314 293 297 300 299 301 302 303 302 305 306 307 311 311 308 307 307 307 312 312 309 312 321 322 321 315 307 306 306 305 305 305 306 306 305 306
297 297 298 296 296 299 296 303 304 291 293 293 298 299 302 301 302 302 304 307 305 306 308 310 312 308 307 309 311 310 308 315 319 319 311 306 306 307 304 303 304 304 304 306 305
297 298 298 297 297 299 298 304 304 294 292 298 297 301 302 300 301 302 302 304 303 303 308 309 310 306 306 306 307 310 310 305 307 302 309 307 307 309 307 305 304 304 304 305 305
297 297 297 297 297 294 302 301 294 290 297 297 300 297 302 300 302 302 302 300 301 300 300 306 311 305 306 307 308 307 305 311 310 314 311 305 307 310 309 306 304 305 305 304 304
296 299 295 296 294 298 302 295 290 291 296 297 297 297 299 301 298 301 301 299 298 299 302 305 308 310 308 309 310 311 311 306 306 306 309 308 307 303 307 306 306 304 303 302 302
295 299 294 294 297 284 295 288 292 295 295 297 297 297 300 299 300 300 302 300 297 297 305 304 305 310 308 308 308 308 311 308 310 307 305 305 306 306 306 305 304 303 301 300 300
296 295 292 291 299 295 289 290 293 296 296 297 298 298 298 299 299 300 299 297 297 300 302 303 306 310 309 306 305 308 309 308 307 306 307 309 306 304 304 303 301 301 299 298 298
295 298 294 294 289 292 291 293 295 294 296 297 297 297 297 297 293 298 297 297 296 297 299 301 302 303 308 307 304 308 309 309 309 313 308 306 303 307 304 302 300 298 298 297 297
292 297 294 297 295 292 292 292 295 296 295 296 297 297 297 297 296 295 294 296 296 295 297 298 303 298 299 297 298 303 306 308 310 308 309 308 305 307 304 301 298 298 298 298 297
293 294 288 290 290 293 293 291 296 295 296 297 295 297 295 297 298 296 295 295 299 294 295 294 300 294 298 295 293 299 301 303 307 310 309 308 309 303 300 297 298 297 297 296 296
291 289 295 292 292 295 295 293 295 295 295 295 296 297 294 294 293 294 295 294 295 295 293 293 293 294 299 287 290 297 295 301 303 306 307 308 308 301 298 297 296 296 296 296 296
Wind_Speed
6 7 9 10 10 10 11 12 13 13 14 15 15 15 14 15 8 6 3 2 3 5 9 13 9 11 5 3 5 3 7 15 26 26 21 4 14 15 10 19 9 6 2 3 22
7 8 9 10 10 11 11 13 13 14 15 15 14 14 13 15 3 5 7 6 3 8 12 13 12 13 4 4 4 9 8 16 18 16 19 8 14 15 11 14 12 8 7 14 22
6 8 9 10 11 12 13 13 14 15 15 14 13 12 12 12 1 6 10 7 8 11 9 7 10 8 8 5 8 7 15 16 14 12 12 11 15 13 15 17 15 15 14 15 18
7 8 9 10 11 13 13 14 15 16 15 14 12 11 12 5 3 7 11 7 9 9 8 9 3 4 7 8 5 10 18 16 15 11 9 15 10 9 13 14 6 6 14 16 15
6 8 10 11 12 13 14 15 16 16 16 15 10 7 5 1 3 11 15 13 11 5 8 7 8 4 5 5 8 13 15 15 14 14 14 15 18 10 13 7 3 8 12 16 15
7 8 10 11 13 14 15 17 17 18 18 11 2 3 1 0 5 13 16 12 6 7 6 6 4 1 4 8 9 6 10 12 11 13 12 16 19 6 7 7 5 11 11 12 12
8 11 12 14 14 15 16 17 17 19 7 2 1 1 0 1 10 14 12 7 5 5 5 6 5 3 0 7 9 13 16 14 15 14 11 11 17 14 8 5 11 13 9 6 6
8 10 12 14 16 17 17 17 18 6 4 1 3 1 3 3 12 11 11 3 5 4 2 2 5 1 2 8 8 11 10 10 10 17 7 6 14 19 13 10 13 13 10 9 10
8 10 12 14 16 16 17 18 6 3 3 5 3 1 2 10 9 12 11 3 5 3 3 5 3 2 4 5 6 7 8 9 7 14 10 7 5 22 19 13 13 14 10 8 8
8 10 12 14 15 16 16 10 2 3 3 1 1 2 2 8 11 11 8 4 3 4 2 1 1 3 1 3 7 13 7 5 4 12 9 7 19 15 18 14 12 14 13 11 8
9 10 11 13 13 14 15 1 1 2 6 3 1 1 4 15 3 7 8 4 1 3 7 3 2 7 8 5 10 9 11 6 5 6 7 7 14 14 11 14 14 14 13 11 8
9 9 10 12 11 9 7 4 2 1 1 1 2 4 4 4 4 10 7 5 4 5 11 3 7 4 6 5 11 10 10 8 12 19 12 13 15 17 21 15 12 12 12 9 10
8 8 8 9 6 4 9 4 2 2 1 1 2 2 4 5 4 9 8 4 4 7 8 6 9 2 3 4 6 8 13 13 11 10 13 4 18 17 15 17 15 13 10 10 8
7 6 7 6 2 2 2 2 3 2 2 3 2 3 3 3 2 4 5 4 2 6 6 3 13 8 11 10 9 10 13 6 11 7 8 10 6 19 19 17 16 13 11 9 9
6 4 5 5 1 2 1 3 3 1 2 3 3 5 6 3 7 8 7 3 5 8 4 5 10 13 15 9 7 4 7 6 6 10 10 17 7 13 14 18 18 14 11 10 8
5 3 2 0 2 2 3 4 1 1 3 1 4 7 3 6 5 7 3 5 3 6 3 3 1 4 9 6 2 5 3 2 1 1 8 14 4 15 12 13 12 12 13 13 7
4 2 1 1 2 2 6 0 1 2 2 1 3 4 2 6 6 8 7 12 7 7 7 6 6 4 5 6 2 11 3 1 3 6 7 8 13 10 13 12 10 11 14 14 11
4 3 3 3 3 6 2 2 2 2 3 1 1 1 3 7 3 7 1 5 11 6 3 6 1 11 10 4 5 6 5 3 4 3 4 11 6 4 6 9 11 12 13 15 15
6 5 4 3 3 3 1 1 2 4 3 5 3 3 2 1 3 3 6 2 4 8 5 5 2 4 3 4 5 6 7 3 6 2 4 4 6 8 8 11 12 14 15 14 15
8 5 2 3 3 2 2 3 3 3 2 2 3 1 2 2 1 2 2 2 2 3 3 4 5 4 5 4 1 4 4 1 3 3 4 4 3 7 8 10 10 12 12 12 13
6 3 1 5 3 3 2 3 3 5 2 2 4 4 2 2 1 1 1 1 2 2 3 3 3 3 2 7 6 6 4 4 3 2 2 5 5 3 3 5 7 9 10 11 11
5 2 1 8 2 1 2 4 3 5 3 2 3 3 4 4 3 2 2 1 2 1 4 3 3 2 2 2 2 0 4 4 1 2 3 2 4 5 4 5 6 7 7 9 9
4 2 3 1 4 3 1 1 2 4 5 5 4 3 2 3 2 3 3 1 2 1 2 3 2 2 1 0 1 2 2 2 2 1 1 1 6 3 4 5 6 7 8 8 10
3 4 1 1 1 5 6 4 4 2 4 3 4 4 4 2 1 5 5 3 1 2 5 3 3 2 3 3 3 2 0 1 2 1 4 2 9 6 5 5 5 6 7 9 10
1 3 2 6 5 4 3 6 6 6 4 5 2 5 6 4 2 4 2 3 1 2 3 1 2 1 1 3 2 4 5 2 3 0 3 7 10 9 6 6 4 4 6 9 11
5 4 1 2 6 10 8 10 11 6 9 6 4 12 8 5 4 7 7 4 2 3 3 1 3 2 3 5 5 4 7 6 3 4 4 4 5 5 5 4 5 5 6 8 9
9 3 2 8 7 7 6 8 12 12 7 3 11 8 8 4 5 7 5 6 4 4 3 3 5 3 3 3 5 6 8 10 4 5 7 7 4 11 8 7 6 6 6 7 7
Wind_Direction
347 352 352 351 345 344 341 338 339 338 337 337 341 340 341 341 8 30 20 351 22 331 340 338 326 349 316 261 233 228 247 248 244 239 243 261 253 216 261 242 207 175 312 109 146
336 340 347 345 339 337 338 335 335 336 333 335 339 338 339 340 352 9 338 319 317 325 343 347 339 335 295 266 241 215 230 246 262 268 246 263 253 267 207 219 213 172 108 137 152
325 335 341 343 340 336 336 334 332 332 328 331 335 334 336 343 241 346 338 320 299 305 315 318 321 310 271 246 223 230 246 254 280 284 298 300 286 285 265 215 215 195 160 162 164
321 333 338 338 337 335 332 330 330 327 325 326 330 332 333 11 7 340 335 313 309 307 295 296 317 282 272 248 238 256 256 273 275 286 299 261 303 282 293 264 177 153 163 166 174
322 330 335 335 333 334 331 329 327 326 323 317 317 324 352 9 343 324 336 330 335 319 291 280 273 271 259 270 244 245 268 278 274 275 273 272 253 272 300 311 214 156 168 180 182
322 325 330 330 329 331 330 329 326 325 318 312 318 303 16 90 326 332 338 344 350 353 315 260 257 71 244 256 244 244 245 262 269 259 260 250 250 309 194 280 138 128 160 180 183
319 324 329 328 327 330 329 328 328 325 342 10 117 274 202 258 336 347 336 341 6 5 342 340 180 195 186 262 255 262 264 259 245 238 250 242 258 228 214 165 107 91 77 96 127
311 318 324 326 328 330 329 329 328 333 345 173 176 281 270 293 332 346 340 359 20 22 17 83 148 229 235 300 269 266 256 261 230 212 205 151 244 227 168 136 105 104 81 68 60
308 315 322 325 329 331 330 327 330 22 64 136 139 282 353 326 353 342 341 3 19 14 21 113 149 264 222 272 272 218 277 241 252 178 137 165 267 166 165 111 109 103 105 97 77
307 312 321 326 331 333 332 333 115 102 96 136 97 223 359 328 324 320 338 57 39 307 254 303 250 281 233 279 320 314 317 38 151 159 139 187 249 100 130 113 92 89 95 81 68
304 310 321 327 333 337 342 81 168 177 50 39 30 327 299 322 315 336 337 70 26 285 357 21 291 357 333 309 292 281 287 270 301 168 145 236 91 62 125 104 80 80 62 58 56
292 308 321 329 333 352 2 67 75 341 272 190 263 277 280 333 297 338 347 62 340 351 353 8 19 329 295 296 291 307 93 142 124 104 105 60 58 92 67 68 76 64 54 50 25
288 307 322 336 346 28 65 90 105 131 314 354 359 345 324 341 320 319 347 83 344 354 355 31 345 271 281 44 340 346 37 74 82 96 84 66 41 69 57 57 53 29 35 40 11
282 298 321 336 335 43 66 94 128 136 95 356 45 70 325 325 260 307 351 70 346 339 329 347 338 330 37 22 6 8 349 0 28 24 56 349 78 43 58 63 56 42 20 23 6
263 286 316 9 97 70 358 128 145 268 339 21 342 320 326 27 326 24 347 89 11 331 295 357 352 354 36 1 346 19 320 356 47 59 66 13 70 16 35 35 32 32 41 42 2
252 258 284 148 84 76 134 141 262 318 236 85 325 354 357 13 11 308 26 49 109 309 329 353 283 42 327 296 331 299 245 260 41 267 48 14 81 30 13 356 14 31 46 59 45
208 234 282 145 115 108 141 254 351 200 359 356 19 5 32 3 360 6 42 60 41 349 0 329 22 24 22 310 81 35 351 302 38 43 53 28 58 38 16 24 23 30 45 53 60
178 175 139 107 90 138 113 64 232 32 233 161 24 356 58 2 24 1 48 71 47 7 343 345 24 3 358 17 318 2 22 46 92 76 80 40 54 46 25 36 42 47 49 55 53
166 148 149 145 124 151 108 110 227 186 153 166 121 87 347 30 346 4 39 80 80 21 3 330 343 336 348 338 335 353 38 340 104 64 78 76 103 95 64 54 46 44 53 51 51
159 147 129 160 142 111 79 234 173 198 159 201 144 147 206 327 48 11 24 332 99 90 48 333 298 8 334 309 23 9 326 109 19 106 104 113 107 107 34 36 39 45 46 41 38
155 133 161 156 121 57 220 202 184 215 232 188 146 132 200 185 99 104 26 39 334 92 107 9 292 353 350 28 1 342 357 49 108 24 106 144 115 30 42 40 57 51 44 42 42
147 171 154 150 92 358 201 167 168 156 190 150 111 122 173 184 128 149 203 22 332 216 100 70 308 338 79 1 302 260 342 319 330 130 73 68 117 39 80 77 73 70 51 43 44
137 100 42 67 179 193 149 158 228 155 195 164 145 167 163 181 141 155 196 220 348 97 51 69 86 289 155 110 200 38 26 354 339 332 82 144 146 96 114 76 55 62 60 57 51
145 142 98 177 356 150 146 195 185 218 205 165 123 127 129 158 1 161 179 173 152 57 78 175 105 283 329 39 350 289 338 111 12 304 141 69 144 166 122 102 74 60 53 54 51
118 199 165 179 212 179 169 158 140 176 233 193 140 207 166 143 154 180 219 194 192 47 82 48 131 349 7 5 302 283 281 278 186 119 261 149 160 168 159 134 110 85 79 63 49
150 163 165 137 140 152 187 206 172 170 163 209 205 188 190 163 194 182 153 215 242 113 97 48 127 126 260 324 343 274 244 248 216 162 142 148 163 149 147 143 129 85 69 57 41
168 152 197 156 147 162 209 181 195 153 209 209 176 155 189 201 116 97 93 91 146 139 122 112 137 148 250 333 312 275 229 203 202 175 151 195 177 157 158 157 125 91 64 44 23